Weather History for Lamar, CO

Change the Weather History Date:

Friday, February 1, 2013

  Actual Average Record
Temperature  
Mean Temperature 35 °F 31 °F  
Max Temperature 56 °F 47 °F 78 °F (1963)
Min Temperature 14 °F 15 °F -18 °F (1951)
Degree Days  
Heating Degree Days 30 34  
Month to date heating degree days 30 34  
Since 1 July heating degree days 3249 3465  
Cooling Degree Days 0 0  
Month to date cooling degree days 0 0  
Year to date cooling degree days 0 0  
Moisture  
Dew Point 20 °F    
Average Humidity 64    
Maximum Humidity 100    
Minimum Humidity 28    
Precipitation  
Precipitation 0.00 in 0.01 in 0.26 in (1983)
Month to date precipitation 0.00 0.01  
Year to date precipitation 0.02 0.31  
Sea Level Pressure  
Sea Level Pressure 30.14 in    
Wind  
Wind Speed 8 mph (West)    
Max Wind Speed 17 mph    
Max Gust Speed 21 mph    
Visibility 8 miles    
Events      
T = Trace of Precipitation, MM = Missing Value Source: NWS Daily Summary

Daily Weather History Graph

Daily Weather History Graph

Search for Another Location

Airport:

Trip Planner

Search our weather history database for the weather conditions in past years. The results will help you decide how hot, cold, wet, or windy it might be!

Date:

Astronomy

Feb. 01, 2013 Rise Set
Actual Time 6:55 AM MST 5:14 PM MST
Civil Twilight 6:27 AM MST 5:41 PM MST
Nautical Twilight 5:55 AM MST 6:13 PM MST
Astronomical Twilight 5:24 AM MST 6:44 PM MST
Moon 11:16 PM MST (2/1) 9:36 AM MST (2/1)
Length of Visible Light 11h 14m
Length of Day
10h 19m
Waning Gibbous, 69% of the Moon is Illuminated
Feb 1
Waning Gibbous
Feb 3
Last Quarter
Feb 10
New
Feb 17
First Quarter
Feb 25
Full

Hourly Weather History & Observations

Time (MST) Temp. Windchill Dew Point Humidity Pressure Visibility Wind Dir Wind Speed Gust Speed Precip Events Conditions
12:53 AM 21.0 °F 11.4 °F 18.0 °F 88% 30.21 in 9.0 mi East 8.1 mph - N/A   Clear
2:53 AM 18.0 °F 8.7 °F 15.1 °F 88% 30.18 in 10.0 mi SE 6.9 mph - N/A   Clear
3:53 AM 23.0 °F 14.7 °F 19.0 °F 85% 30.13 in 10.0 mi SSW 6.9 mph - N/A   Clear
5:53 AM 15.1 °F 0.5 °F 12.9 °F 91% 30.20 in 9.0 mi West 13.8 mph - N/A   Clear
6:53 AM 14.0 °F 1.2 °F 12.0 °F 92% 30.21 in 9.0 mi West 10.4 mph - N/A   Partly Cloudy
7:07 AM 15.8 °F 2.7 °F 12.2 °F 86% 30.12 in 6.0 mi West 11.5 mph - N/A   Mostly Cloudy
7:22 AM 17.6 °F 5.0 °F 15.8 °F 93% 30.12 in 4.0 mi West 11.5 mph - N/A   Overcast
7:53 AM 18.0 °F 6.9 °F 17.1 °F 96% 30.21 in 3.0 mi West 9.2 mph - N/A   Overcast
8:04 AM 17.6 °F 5.0 °F 17.6 °F 100% 30.11 in 2.0 mi WNW 11.5 mph - N/A   Overcast
8:53 AM 19.9 °F 7.9 °F 19.0 °F 96% 30.21 in 2.5 mi West 11.5 mph - N/A   Overcast
9:06 AM 21.2 °F 10.1 °F 19.4 °F 93% 30.12 in 4.0 mi West 10.4 mph - N/A   Overcast
9:53 AM 24.1 °F 13.7 °F 21.9 °F 91% 30.19 in 5.0 mi West 10.4 mph - N/A   Overcast
10:24 AM 26.6 °F 16.2 °F 24.8 °F 93% 30.09 in 6.0 mi WSW 11.5 mph - N/A   Overcast
10:53 AM 28.9 °F 21.1 °F 25.0 °F 85% 30.16 in 9.0 mi West 8.1 mph - N/A   Mostly Cloudy
11:01 AM 30.2 °F 21.3 °F 24.8 °F 80% 30.08 in 10.0 mi West 10.4 mph - N/A   Mostly Cloudy
11:11 AM 32.0 °F 23.0 °F 24.8 °F 75% 30.07 in 10.0 mi WSW 11.5 mph - N/A   Partly Cloudy
11:53 AM 37.0 °F 30.4 °F 24.1 °F 59% 30.12 in 10.0 mi WNW 9.2 mph - N/A   Clear
12:53 PM 44.1 °F 40.1 °F 24.1 °F 45% 30.05 in 10.0 mi WNW 6.9 mph - N/A   Clear
1:53 PM 50.0 °F - 23.0 °F 35% 30.01 in 10.0 mi Calm Calm - N/A   Clear
2:53 PM 54.0 °F - 21.0 °F 28% 29.99 in 10.0 mi Variable 3.5 mph - N/A   Clear
3:53 PM 54.0 °F - 21.9 °F 29% 29.98 in 10.0 mi ESE 6.9 mph - N/A   Clear
4:53 PM 48.0 °F - 23.0 °F 37% 30.03 in 10.0 mi ESE 10.4 mph - N/A   Clear
5:53 PM 39.9 °F 36.7 °F 21.9 °F 49% 30.10 in 10.0 mi East 4.6 mph - N/A   Scattered Clouds
6:53 PM 45.0 °F 37.9 °F 19.9 °F 37% 30.12 in 10.0 mi NNE 16.1 mph - N/A   Clear
7:53 PM 36.0 °F 30.3 °F 19.9 °F 52% 30.17 in 10.0 mi North 6.9 mph - N/A   Clear
8:53 PM 34.0 °F 29.8 °F 19.9 °F 56% 30.21 in 10.0 mi WSW 4.6 mph - N/A   Clear
9:53 PM 30.0 °F - 19.0 °F 64% 30.25 in 10.0 mi Calm Calm - N/A   Clear
10:53 PM 23.0 °F 14.7 °F 17.1 °F 78% 30.28 in 10.0 mi SSW 6.9 mph - N/A   Clear
11:53 PM 26.1 °F 17.6 °F 21.9 °F 84% 30.26 in 10.0 mi SSW 8.1 mph - N/A   Clear